This is the latest recevied weather packets stored in our database for station/object K4PAR-1. If no packets are shown the sender has not sent any weather packets the latest 10 day(s).
| Time | Temp. | Humidity | Pressure | Rain* | Wind** | Luminosity | Snow |
|---|---|---|---|---|---|---|---|
| 1778098481 | 30.56° C | - | - | 0 mm | 1.34 m/s, 52° | - | - |
| 1778098238 | 30.56° C | - | - | 0 mm | 1.34 m/s, 35° | - | - |
| 1778097996 | 30.56° C | - | - | 0 mm | 0.89 m/s, 66° | - | - |
| 1778097754 | 30.56° C | - | - | 0 mm | 0.45 m/s, 18° | - | - |
| 1778097511 | 30.56° C | - | - | 0 mm | 0.89 m/s, 70° | - | - |
| 1778097269 | 30.56° C | - | - | 0 mm | 0.89 m/s, 69° | - | - |
| 1778097026 | 30.56° C | - | - | 0 mm | 0.89 m/s, 59° | - | - |
| 1778096784 | 31.67° C | - | - | 0 mm | 0.45 m/s, 59° | - | - |
| 1778096541 | 31.11° C | - | - | 0 mm | 0.89 m/s, 39° | - | - |
| 1778096299 | 30.56° C | - | - | 0 mm | 2.24 m/s, 56° | - | - |
| 1778096057 | 29.44° C | - | - | 0 mm | 1.34 m/s, 49° | - | - |
| 1778095814 | 28.89° C | - | - | 0 mm | 0.45 m/s, 65° | - | - |
| 1778095572 | 28.89° C | - | - | 0 mm | 3.13 m/s, 73° | - | - |
| 1778095329 | 29.44° C | - | - | 0 mm | 0.45 m/s, 31° | - | - |
| 1778095087 | 28.89° C | - | - | 0 mm | 0 m/s | - | - |
| 1778094844 | 28.89° C | - | - | 0 mm | 2.24 m/s, 60° | - | - |
| 1778094602 | 30° C | - | - | 0 mm | 0.89 m/s, 60° | - | - |
| 1778094360 | 30.56° C | - | - | 0 mm | 0.89 m/s, 27° | - | - |
| 1778094117 | 31.67° C | - | - | 0 mm | 0.89 m/s, 53° | - | - |
| 1778093875 | 31.67° C | - | - | 0 mm | 0.89 m/s, 82° | - | - |
| 1778093632 | 31.67° C | - | - | 0 mm | 1.34 m/s, 77° | - | - |
| 1778093390 | 30° C | - | - | 0 mm | 0 m/s | - | - |
| 1778093148 | 30.56° C | - | - | 0 mm | 1.79 m/s, 58° | - | - |
| 1778092905 | 30° C | - | - | 0 mm | 3.13 m/s, 66° | - | - |
| 1778092663 | 30.56° C | - | - | 0 mm | 1.79 m/s, 86° | - | - |
* Rain latest hour (hover to see other rain measurements)
** Current wind speed in m/s (hover to see current wind gust speed)